Year,Month,Day,Hour,Minute,Value (Times are PST for temperature in C)
2007,08,12,00,00,14.10
2007,08,12,00,01,14.10
2007,08,12,00,02,14.10
2007,08,12,00,03,14.10
2007,08,12,00,04,14.10
2007,08,12,00,05,14.10
2007,08,12,00,06,14.10
2007,08,12,00,07,14.10
2007,08,12,00,08,14.10
2007,08,12,00,09,14.10
2007,08,12,00,10,14.10
2007,08,12,00,11,14.10
2007,08,12,00,12,14.10
2007,08,12,00,13,14.10
2007,08,12,00,14,14.20
2007,08,12,00,15,14.20
2007,08,12,00,16,14.30
2007,08,12,00,17,14.30
2007,08,12,00,18,14.40
2007,08,12,00,19,14.40
2007,08,12,00,20,14.40
2007,08,12,00,21,14.40
2007,08,12,00,22,14.40
2007,08,12,00,23,14.40
2007,08,12,00,24,14.30
2007,08,12,00,25,14.30
2007,08,12,00,26,14.30
2007,08,12,00,27,14.30
2007,08,12,00,28,14.20
2007,08,12,00,29,14.10
2007,08,12,00,30,14.10
2007,08,12,00,31,14.10
2007,08,12,00,32,14.10
2007,08,12,00,33,14.10
2007,08,12,00,34,14.10
2007,08,12,00,35,14.10
2007,08,12,00,36,14.00
2007,08,12,00,37,14.00
2007,08,12,00,38,14.00
2007,08,12,00,39,13.90
2007,08,12,00,40,13.90
2007,08,12,00,41,13.90
2007,08,12,00,42,13.90
2007,08,12,00,43,13.90
2007,08,12,00,44,13.90
2007,08,12,00,45,13.90
2007,08,12,00,46,13.90
2007,08,12,00,47,13.90
2007,08,12,00,48,13.90
2007,08,12,00,49,13.80
2007,08,12,00,50,13.80
2007,08,12,00,51,13.80
2007,08,12,00,52,13.80
2007,08,12,00,53,13.80
2007,08,12,00,54,13.80
2007,08,12,00,55,13.80
2007,08,12,00,56,13.80
2007,08,12,00,57,13.90
2007,08,12,00,58,13.90
2007,08,12,00,59,13.90
2007,08,12,01,00,13.90
2007,08,12,01,01,13.90
2007,08,12,01,02,13.90
2007,08,12,01,03,13.90
2007,08,12,01,04,13.90
2007,08,12,01,05,13.90
2007,08,12,01,06,13.90
2007,08,12,01,07,13.90
2007,08,12,01,08,13.90
2007,08,12,01,09,13.90
2007,08,12,01,10,13.90
2007,08,12,01,11,13.80
2007,08,12,01,12,13.80
2007,08,12,01,13,13.80
2007,08,12,01,14,13.80
2007,08,12,01,15,13.80
2007,08,12,01,16,13.80
2007,08,12,01,17,13.80
2007,08,12,01,18,13.80
2007,08,12,01,19,13.80
2007,08,12,01,20,13.80
2007,08,12,01,21,13.80
2007,08,12,01,22,13.80
2007,08,12,01,23,13.80
2007,08,12,01,24,13.80
2007,08,12,01,25,13.80
2007,08,12,01,26,13.80
2007,08,12,01,27,13.80
2007,08,12,01,28,13.80
2007,08,12,01,29,13.70
2007,08,12,01,30,13.70
2007,08,12,01,31,13.70
2007,08,12,01,32,13.70
2007,08,12,01,33,13.70
2007,08,12,01,34,13.70
2007,08,12,01,35,13.80
2007,08,12,01,36,13.80
2007,08,12,01,37,13.80
2007,08,12,01,38,13.90
2007,08,12,01,39,13.90
2007,08,12,01,40,13.90
2007,08,12,01,41,13.90
2007,08,12,01,42,13.90
2007,08,12,01,43,13.90
2007,08,12,01,44,13.90
2007,08,12,01,45,13.90
2007,08,12,01,46,13.90
2007,08,12,01,47,13.90
2007,08,12,01,48,13.90
2007,08,12,01,49,13.90
2007,08,12,01,50,13.90
2007,08,12,01,51,13.90
2007,08,12,01,52,13.80
2007,08,12,01,53,13.90
2007,08,12,01,54,13.90
2007,08,12,01,55,13.90
2007,08,12,01,56,13.90
2007,08,12,01,57,13.90
2007,08,12,01,58,13.90
2007,08,12,01,59,13.90
2007,08,12,02,00,13.90
2007,08,12,02,01,13.90
2007,08,12,02,02,13.90
2007,08,12,02,03,13.90
2007,08,12,02,04,13.80
2007,08,12,02,05,13.80
2007,08,12,02,06,13.80
2007,08,12,02,07,13.80
2007,08,12,02,08,13.70
2007,08,12,02,09,13.70
2007,08,12,02,10,13.70
2007,08,12,02,11,13.70
2007,08,12,02,12,13.70
2007,08,12,02,13,13.70
2007,08,12,02,14,13.70
2007,08,12,02,15,13.70
2007,08,12,02,16,13.70
2007,08,12,02,17,13.70
2007,08,12,02,18,13.70
2007,08,12,02,19,13.70
2007,08,12,02,20,13.70
2007,08,12,02,21,13.70
2007,08,12,02,22,13.70
2007,08,12,02,23,13.70
2007,08,12,02,24,13.70
2007,08,12,02,25,13.70
2007,08,12,02,26,13.70
2007,08,12,02,27,13.70
2007,08,12,02,28,13.70
2007,08,12,02,29,13.70
2007,08,12,02,30,13.70
2007,08,12,02,31,13.70
2007,08,12,02,32,13.70
2007,08,12,02,33,13.70
2007,08,12,02,34,13.70
2007,08,12,02,35,13.70
2007,08,12,02,36,13.70
2007,08,12,02,37,13.70
2007,08,12,02,38,13.70
2007,08,12,02,39,13.70
2007,08,12,02,40,13.50
2007,08,12,02,41,13.50
2007,08,12,02,42,13.40
2007,08,12,02,43,13.40
2007,08,12,02,44,13.40
2007,08,12,02,45,13.40
2007,08,12,02,46,13.30
2007,08,12,02,47,13.40
2007,08,12,02,48,13.30
2007,08,12,02,49,13.30
2007,08,12,02,50,13.40
2007,08,12,02,51,13.40
2007,08,12,02,52,13.40
2007,08,12,02,53,13.30
2007,08,12,02,54,13.30
2007,08,12,02,55,13.30
2007,08,12,02,56,13.30
2007,08,12,02,57,13.30
2007,08,12,02,58,13.30
2007,08,12,02,59,13.30
2007,08,12,03,00,13.20
2007,08,12,03,01,13.20
2007,08,12,03,02,13.20
2007,08,12,03,03,13.20
2007,08,12,03,04,13.20
2007,08,12,03,05,13.20
2007,08,12,03,06,13.30
2007,08,12,03,07,13.30
2007,08,12,03,08,13.30
2007,08,12,03,09,13.40
2007,08,12,03,10,13.40
2007,08,12,03,11,13.40
2007,08,12,03,12,13.40
2007,08,12,03,13,13.40
2007,08,12,03,14,13.40
2007,08,12,03,15,13.40
2007,08,12,03,16,13.30
2007,08,12,03,17,13.30
2007,08,12,03,18,13.30
2007,08,12,03,19,13.20
2007,08,12,03,20,13.20
2007,08,12,03,21,13.20
2007,08,12,03,22,13.20
2007,08,12,03,23,13.20
2007,08,12,03,24,13.10
2007,08,12,03,25,13.20
2007,08,12,03,26,13.20
2007,08,12,03,27,13.20
2007,08,12,03,28,13.20
2007,08,12,03,29,13.30
2007,08,12,03,30,13.30
2007,08,12,03,31,13.40
2007,08,12,03,32,13.40
2007,08,12,03,33,13.40
2007,08,12,03,34,13.50
2007,08,12,03,35,13.50
2007,08,12,03,36,13.50
2007,08,12,03,37,13.60
2007,08,12,03,38,13.60
2007,08,12,03,39,13.50
2007,08,12,03,40,13.50
2007,08,12,03,41,13.40
2007,08,12,03,42,13.30
2007,08,12,03,43,13.30
2007,08,12,03,44,13.30
2007,08,12,03,45,13.20
2007,08,12,03,46,13.20
2007,08,12,03,47,13.20
2007,08,12,03,48,13.10
2007,08,12,03,49,13.10
2007,08,12,03,50,13.00
2007,08,12,03,51,13.00
2007,08,12,03,52,12.90
2007,08,12,03,53,12.90
2007,08,12,03,54,12.80
2007,08,12,03,55,12.80
2007,08,12,03,56,12.80
2007,08,12,03,57,12.80
2007,08,12,03,58,12.70
2007,08,12,03,59,12.70
2007,08,12,04,00,12.70
2007,08,12,04,01,12.70
2007,08,12,04,02,12.70
2007,08,12,04,03,12.70
2007,08,12,04,04,12.70
2007,08,12,04,05,12.70
2007,08,12,04,06,12.60
2007,08,12,04,07,12.60
2007,08,12,04,08,12.60
2007,08,12,04,09,12.60
2007,08,12,04,10,12.60
2007,08,12,04,11,12.60
2007,08,12,04,12,12.60
2007,08,12,04,13,12.60
2007,08,12,04,14,12.50
2007,08,12,04,15,12.50
2007,08,12,04,16,12.50
2007,08,12,04,17,12.50
2007,08,12,04,18,12.40
2007,08,12,04,19,12.40
2007,08,12,04,20,12.40
2007,08,12,04,21,12.30
2007,08,12,04,22,12.30
2007,08,12,04,23,12.30
2007,08,12,04,24,12.30
2007,08,12,04,25,12.30
2007,08,12,04,26,12.20
2007,08,12,04,27,12.20
2007,08,12,04,28,12.20
2007,08,12,04,29,12.20
2007,08,12,04,30,12.20
2007,08,12,04,31,12.10
2007,08,12,04,32,12.10
2007,08,12,04,33,12.00
2007,08,12,04,34,12.00
2007,08,12,04,35,11.90
2007,08,12,04,36,11.90
2007,08,12,04,37,11.90
2007,08,12,04,38,11.80
2007,08,12,04,39,11.80
2007,08,12,04,40,11.80
2007,08,12,04,41,11.70
2007,08,12,04,42,11.70
2007,08,12,04,43,11.60
2007,08,12,04,44,11.60
2007,08,12,04,45,11.60
2007,08,12,04,46,11.60
2007,08,12,04,47,11.60
2007,08,12,04,48,11.60
2007,08,12,04,49,11.60
2007,08,12,04,50,11.50
2007,08,12,04,51,11.50
2007,08,12,04,52,11.50
2007,08,12,04,53,11.40
2007,08,12,04,54,11.40
2007,08,12,04,55,11.40
2007,08,12,04,56,11.40
2007,08,12,04,57,11.50
2007,08,12,04,58,11.50
2007,08,12,04,59,11.50
2007,08,12,05,00,11.60
2007,08,12,05,01,11.60
2007,08,12,05,02,11.60
2007,08,12,05,03,11.50
2007,08,12,05,04,11.50
2007,08,12,05,05,11.50
2007,08,12,05,06,11.50
2007,08,12,05,07,11.50
2007,08,12,05,08,11.50
2007,08,12,05,09,11.50
2007,08,12,05,10,11.40
2007,08,12,05,11,11.40
2007,08,12,05,12,11.40
2007,08,12,05,13,11.30
2007,08,12,05,14,11.30
2007,08,12,05,15,11.30
2007,08,12,05,16,11.30
2007,08,12,05,17,11.30
2007,08,12,05,18,11.20
2007,08,12,05,19,11.20
2007,08,12,05,20,11.20
2007,08,12,05,21,11.20
2007,08,12,05,22,11.20
2007,08,12,05,23,11.20
2007,08,12,05,24,11.20
2007,08,12,05,25,11.20
2007,08,12,05,26,11.20
2007,08,12,05,27,11.10
2007,08,12,05,28,11.10
2007,08,12,05,29,11.10
2007,08,12,05,30,11.10
2007,08,12,05,31,11.10
2007,08,12,05,32,11.10
2007,08,12,05,33,11.10
2007,08,12,05,34,11.10
2007,08,12,05,35,11.00
2007,08,12,05,36,11.00
2007,08,12,05,37,11.00
2007,08,12,05,38,11.00
2007,08,12,05,39,10.90
2007,08,12,05,40,10.90
2007,08,12,05,41,10.90
2007,08,12,05,42,10.90
2007,08,12,05,43,10.90
2007,08,12,05,44,10.90
2007,08,12,05,45,10.90
2007,08,12,05,46,10.90
2007,08,12,05,47,10.90
2007,08,12,05,48,10.90
2007,08,12,05,49,10.90
2007,08,12,05,50,10.90
2007,08,12,05,51,10.90
2007,08,12,05,52,10.90
2007,08,12,05,53,10.90
2007,08,12,05,54,10.90
2007,08,12,05,55,10.90
2007,08,12,05,56,10.90
2007,08,12,05,57,10.90
2007,08,12,05,58,10.90
2007,08,12,05,59,10.90
2007,08,12,06,00,10.90
2007,08,12,06,01,10.90
2007,08,12,06,02,10.80
2007,08,12,06,03,10.80
2007,08,12,06,04,10.80
2007,08,12,06,05,10.80
2007,08,12,06,06,10.80
2007,08,12,06,07,10.80
2007,08,12,06,08,10.80
2007,08,12,06,09,10.90
2007,08,12,06,10,10.90
2007,08,12,06,11,10.90
2007,08,12,06,12,10.90
2007,08,12,06,13,10.90
2007,08,12,06,14,10.90
2007,08,12,06,15,10.90
2007,08,12,06,16,10.90
2007,08,12,06,17,10.90
2007,08,12,06,18,10.90
2007,08,12,06,19,11.00
2007,08,12,06,20,11.00
2007,08,12,06,21,11.00
2007,08,12,06,22,11.00
2007,08,12,06,23,11.00
2007,08,12,06,24,11.00
2007,08,12,06,25,11.00
2007,08,12,06,26,11.00
2007,08,12,06,27,10.90
2007,08,12,06,28,11.00
2007,08,12,06,29,11.00
2007,08,12,06,30,11.00
2007,08,12,06,31,11.00
2007,08,12,06,32,11.00
2007,08,12,06,33,11.00
2007,08,12,06,34,11.00
2007,08,12,06,35,11.00
2007,08,12,06,36,11.00
2007,08,12,06,37,11.10
2007,08,12,06,38,11.10
2007,08,12,06,39,11.10
2007,08,12,06,40,11.10
2007,08,12,06,41,11.10
2007,08,12,06,42,11.10
2007,08,12,06,43,11.10
2007,08,12,06,44,11.10
2007,08,12,06,45,11.20
2007,08,12,06,46,11.20
2007,08,12,06,47,11.20
2007,08,12,06,48,11.30
2007,08,12,06,49,11.30
2007,08,12,06,50,11.30
2007,08,12,06,51,11.30
2007,08,12,06,52,11.40
2007,08,12,06,53,11.40
2007,08,12,06,54,11.50
2007,08,12,06,55,11.60
2007,08,12,06,56,11.60
2007,08,12,06,57,11.70
2007,08,12,06,58,11.80
2007,08,12,06,59,11.90
2007,08,12,07,00,12.00
2007,08,12,07,01,12.10
2007,08,12,07,02,12.20
2007,08,12,07,03,12.30
2007,08,12,07,04,12.30
2007,08,12,07,05,12.40
2007,08,12,07,06,12.50
2007,08,12,07,07,12.60
2007,08,12,07,08,12.70
2007,08,12,07,09,12.80
2007,08,12,07,10,12.80
2007,08,12,07,11,12.90
2007,08,12,07,12,12.90
2007,08,12,07,13,13.00
2007,08,12,07,14,13.10
2007,08,12,07,15,13.10
2007,08,12,07,16,13.10
2007,08,12,07,17,13.10
2007,08,12,07,18,13.20
2007,08,12,07,19,13.20
2007,08,12,07,20,13.20
2007,08,12,07,21,13.20
2007,08,12,07,22,13.20
2007,08,12,07,23,13.20
2007,08,12,07,24,13.20
2007,08,12,07,25,13.20
2007,08,12,07,26,13.20
2007,08,12,07,27,13.20
2007,08,12,07,28,13.20
2007,08,12,07,29,13.20
2007,08,12,07,30,13.10
2007,08,12,07,31,13.10
2007,08,12,07,32,13.10
2007,08,12,07,33,13.10
2007,08,12,07,34,13.10
2007,08,12,07,35,13.10
2007,08,12,07,36,13.10
2007,08,12,07,37,13.10
2007,08,12,07,38,13.10
2007,08,12,07,39,13.10
2007,08,12,07,40,13.10
2007,08,12,07,41,13.10
2007,08,12,07,42,13.10
2007,08,12,07,43,13.10
2007,08,12,07,44,13.10
2007,08,12,07,45,13.10
2007,08,12,07,46,13.10
2007,08,12,07,47,13.10
2007,08,12,07,48,13.10
2007,08,12,07,49,13.10
2007,08,12,07,50,13.10
2007,08,12,07,51,13.10
2007,08,12,07,52,13.10
2007,08,12,07,53,13.20
2007,08,12,07,54,13.20
2007,08,12,07,55,13.20
2007,08,12,07,56,13.20
2007,08,12,07,57,13.20
2007,08,12,07,58,13.20
2007,08,12,07,59,13.20
2007,08,12,08,00,13.20
2007,08,12,08,01,13.30
2007,08,12,08,02,13.30
2007,08,12,08,03,13.30
2007,08,12,08,04,13.30
2007,08,12,08,05,13.30
2007,08,12,08,06,13.30
2007,08,12,08,07,13.30
2007,08,12,08,08,13.30
2007,08,12,08,09,13.30
2007,08,12,08,10,13.40
2007,08,12,08,11,13.40
2007,08,12,08,12,13.40
2007,08,12,08,13,13.40
2007,08,12,08,14,13.40
2007,08,12,08,15,13.40
2007,08,12,08,16,13.40
2007,08,12,08,17,13.40
2007,08,12,08,18,13.50
2007,08,12,08,19,13.50
2007,08,12,08,20,13.50
2007,08,12,08,21,13.50
2007,08,12,08,22,13.50
2007,08,12,08,23,13.60
2007,08,12,08,24,13.60
2007,08,12,08,25,13.60
2007,08,12,08,26,13.60
2007,08,12,08,27,13.60
2007,08,12,08,28,13.60
2007,08,12,08,29,13.70
2007,08,12,08,30,13.70
2007,08,12,08,31,13.70
2007,08,12,08,32,13.70
2007,08,12,08,33,13.70
2007,08,12,08,34,13.80
2007,08,12,08,35,13.80
2007,08,12,08,36,13.80
2007,08,12,08,37,13.80
2007,08,12,08,38,13.80
2007,08,12,08,39,13.80
2007,08,12,08,40,13.80
2007,08,12,08,41,13.90
2007,08,12,08,42,13.90
2007,08,12,08,43,13.90
2007,08,12,08,44,13.90
2007,08,12,08,45,13.90
2007,08,12,08,46,13.90
2007,08,12,08,47,13.90
2007,08,12,08,48,13.90
2007,08,12,08,49,13.90
2007,08,12,08,50,13.90
2007,08,12,08,51,13.90
2007,08,12,08,52,13.90
2007,08,12,08,53,13.90
2007,08,12,08,54,13.90
2007,08,12,08,55,13.90
2007,08,12,08,56,13.90
2007,08,12,08,57,14.00
2007,08,12,08,58,14.00
2007,08,12,08,59,14.00
2007,08,12,09,00,14.00
2007,08,12,09,01,14.10
2007,08,12,09,02,14.10
2007,08,12,09,03,14.10
2007,08,12,09,04,14.10
2007,08,12,09,05,14.10
2007,08,12,09,06,14.20
2007,08,12,09,07,14.20
2007,08,12,09,08,14.20
2007,08,12,09,09,14.20
2007,08,12,09,10,14.20
2007,08,12,09,11,14.30
2007,08,12,09,12,14.30
2007,08,12,09,13,14.30
2007,08,12,09,14,14.30
2007,08,12,09,15,14.30
2007,08,12,09,16,14.40
2007,08,12,09,17,14.40
2007,08,12,09,18,14.50
2007,08,12,09,19,14.60
2007,08,12,09,20,14.60
2007,08,12,09,21,14.70
2007,08,12,09,22,14.70
2007,08,12,09,23,14.70
2007,08,12,09,24,14.70
2007,08,12,09,25,14.80
2007,08,12,09,26,14.80
2007,08,12,09,27,14.80
2007,08,12,09,28,14.80
2007,08,12,09,29,14.90
2007,08,12,09,30,14.90
2007,08,12,09,31,15.00
2007,08,12,09,32,15.00
2007,08,12,09,33,15.00
2007,08,12,09,34,15.00
2007,08,12,09,35,15.00
2007,08,12,09,36,15.10
2007,08,12,09,37,15.10
2007,08,12,09,38,15.20
2007,08,12,09,39,15.20
2007,08,12,09,40,15.20
2007,08,12,09,41,15.20
2007,08,12,09,42,15.30
2007,08,12,09,43,15.30
2007,08,12,09,44,15.40
2007,08,12,09,45,15.50
2007,08,12,09,46,15.60
2007,08,12,09,47,15.60
2007,08,12,09,48,15.70
2007,08,12,09,49,15.70
2007,08,12,09,50,15.80
2007,08,12,09,51,15.90
2007,08,12,09,52,16.00
2007,08,12,09,53,16.10
2007,08,12,09,54,16.20
2007,08,12,09,55,16.20
2007,08,12,09,56,16.30
2007,08,12,09,57,16.30
2007,08,12,09,58,16.30
2007,08,12,09,59,16.30
2007,08,12,10,00,16.30
2007,08,12,10,01,16.30
2007,08,12,10,02,16.30
2007,08,12,10,03,16.30
2007,08,12,10,04,16.30
2007,08,12,10,05,16.40
2007,08,12,10,06,16.40
2007,08,12,10,07,16.40
2007,08,12,10,08,16.50
2007,08,12,10,09,16.60
2007,08,12,10,10,16.60
2007,08,12,10,11,16.60
2007,08,12,10,12,16.50
2007,08,12,10,13,16.40
2007,08,12,10,14,16.40
2007,08,12,10,15,16.50
2007,08,12,10,16,16.50
2007,08,12,10,17,16.50
2007,08,12,10,18,16.60
2007,08,12,10,19,16.60
2007,08,12,10,20,16.70
2007,08,12,10,21,16.80
2007,08,12,10,22,16.80
2007,08,12,10,23,16.90
2007,08,12,10,24,17.00
2007,08,12,10,25,17.20
2007,08,12,10,26,17.20
2007,08,12,10,27,17.20
2007,08,12,10,28,17.30
2007,08,12,10,29,17.30
2007,08,12,10,30,17.40
2007,08,12,10,31,17.30
2007,08,12,10,32,17.30
2007,08,12,10,33,17.20
2007,08,12,10,34,17.20
2007,08,12,10,35,17.20
2007,08,12,10,36,17.10
2007,08,12,10,37,17.00
2007,08,12,10,38,17.00
2007,08,12,10,39,16.90
2007,08,12,10,40,16.90
2007,08,12,10,41,16.90
2007,08,12,10,42,16.80
2007,08,12,10,43,16.80
2007,08,12,10,44,16.80
2007,08,12,10,45,16.90
2007,08,12,10,46,17.00
2007,08,12,10,47,17.10
2007,08,12,10,48,17.20
2007,08,12,10,49,17.30
2007,08,12,10,50,17.40
2007,08,12,10,51,17.40
2007,08,12,10,52,17.40
2007,08,12,10,53,17.40
2007,08,12,10,54,17.30
2007,08,12,10,55,17.30
2007,08,12,10,56,17.20
2007,08,12,10,57,17.20
2007,08,12,10,58,17.30
2007,08,12,10,59,17.30
2007,08,12,11,00,17.40
2007,08,12,11,01,17.40
2007,08,12,11,02,17.30
2007,08,12,11,03,17.40
2007,08,12,11,04,17.50
2007,08,12,11,05,17.40
2007,08,12,11,06,17.40
2007,08,12,11,07,17.30
2007,08,12,11,08,17.20
2007,08,12,11,09,17.20
2007,08,12,11,10,17.30
2007,08,12,11,11,17.40
2007,08,12,11,12,17.50
2007,08,12,11,13,17.50
2007,08,12,11,14,17.50
2007,08,12,11,15,17.60
2007,08,12,11,16,17.70
2007,08,12,11,17,17.70
2007,08,12,11,18,17.60
2007,08,12,11,19,17.70
2007,08,12,11,20,17.60
2007,08,12,11,21,17.40
2007,08,12,11,22,17.40
2007,08,12,11,23,17.30
2007,08,12,11,24,17.30
2007,08,12,11,25,17.20
2007,08,12,11,26,17.20
2007,08,12,11,27,17.10
2007,08,12,11,28,17.00
2007,08,12,11,29,17.00
2007,08,12,11,30,17.00
2007,08,12,11,31,17.00
2007,08,12,11,32,16.90
2007,08,12,11,33,16.80
2007,08,12,11,34,16.80
2007,08,12,11,35,16.80
2007,08,12,11,36,16.80
2007,08,12,11,37,16.80
2007,08,12,11,38,16.80
2007,08,12,11,39,16.80
2007,08,12,11,40,16.80
2007,08,12,11,41,16.80
2007,08,12,11,42,16.90
2007,08,12,11,43,16.90
2007,08,12,11,44,16.90
2007,08,12,11,45,16.80
2007,08,12,11,46,16.70
2007,08,12,11,47,16.60
2007,08,12,11,48,16.50
2007,08,12,11,49,16.40
2007,08,12,11,50,16.40
2007,08,12,11,51,16.30
2007,08,12,11,52,16.20
2007,08,12,11,53,16.10
2007,08,12,11,54,16.10
2007,08,12,11,55,16.00
2007,08,12,11,56,16.00
2007,08,12,11,57,16.10
2007,08,12,11,58,16.10
2007,08,12,11,59,16.10
2007,08,12,12,00,16.20
2007,08,12,12,01,16.30
2007,08,12,12,02,16.40
2007,08,12,12,03,16.40
2007,08,12,12,04,16.40
2007,08,12,12,05,16.40
2007,08,12,12,06,16.30
2007,08,12,12,07,16.30
2007,08,12,12,08,16.40
2007,08,12,12,09,16.40
2007,08,12,12,10,16.50
2007,08,12,12,11,16.60
2007,08,12,12,12,16.60
2007,08,12,12,13,16.70
2007,08,12,12,14,16.70
2007,08,12,12,15,16.60
2007,08,12,12,16,16.60
2007,08,12,12,17,16.60
2007,08,12,12,18,16.60
2007,08,12,12,19,16.70
2007,08,12,12,20,16.80
2007,08,12,12,21,16.90
2007,08,12,12,22,17.00
2007,08,12,12,23,17.10
2007,08,12,12,24,17.10
2007,08,12,12,25,17.10
2007,08,12,12,26,17.10
2007,08,12,12,27,17.20
2007,08,12,12,28,17.30
2007,08,12,12,29,17.40
2007,08,12,12,30,17.40
2007,08,12,12,31,17.50
2007,08,12,12,32,17.50
2007,08,12,12,33,17.50
2007,08,12,12,34,17.60
2007,08,12,12,35,17.60
2007,08,12,12,36,17.60
2007,08,12,12,37,17.70
2007,08,12,12,38,17.80
2007,08,12,12,39,17.80
2007,08,12,12,40,17.90
2007,08,12,12,41,17.90
2007,08,12,12,42,18.00
2007,08,12,12,43,18.10
2007,08,12,12,44,18.20
2007,08,12,12,45,18.10
2007,08,12,12,46,18.10
2007,08,12,12,47,18.10
2007,08,12,12,48,18.10
2007,08,12,12,49,18.10
2007,08,12,12,50,18.20
2007,08,12,12,51,18.20
2007,08,12,12,52,18.10
2007,08,12,12,53,18.00
2007,08,12,12,54,18.00
2007,08,12,12,55,18.10
2007,08,12,12,56,18.20
2007,08,12,12,57,18.30
2007,08,12,12,58,18.50
2007,08,12,12,59,18.60
2007,08,12,13,00,18.60
2007,08,12,13,01,18.60
2007,08,12,13,02,18.60
2007,08,12,13,03,18.70
2007,08,12,13,04,18.70
2007,08,12,13,05,18.80
2007,08,12,13,06,18.80
2007,08,12,13,07,18.80
2007,08,12,13,08,18.80
2007,08,12,13,09,18.80
2007,08,12,13,10,18.90
2007,08,12,13,11,19.10
2007,08,12,13,12,19.30
2007,08,12,13,13,19.40
2007,08,12,13,14,19.50
2007,08,12,13,15,19.50
2007,08,12,13,16,19.60
2007,08,12,13,17,19.50
2007,08,12,13,18,19.40
2007,08,12,13,19,19.30
2007,08,12,13,20,19.30
2007,08,12,13,21,19.30
2007,08,12,13,22,19.30
2007,08,12,13,23,19.30
2007,08,12,13,24,19.30
2007,08,12,13,25,19.30
2007,08,12,13,26,19.30
2007,08,12,13,27,19.20
2007,08,12,13,28,19.10
2007,08,12,13,29,19.10
2007,08,12,13,30,19.10
2007,08,12,13,31,19.10
2007,08,12,13,32,19.10
2007,08,12,13,33,19.10
2007,08,12,13,34,19.20
2007,08,12,13,35,19.30
2007,08,12,13,36,19.50
2007,08,12,13,37,19.60
2007,08,12,13,38,19.70
2007,08,12,13,39,19.70
2007,08,12,13,40,19.70
2007,08,12,13,41,19.70
2007,08,12,13,42,19.70
2007,08,12,13,43,19.70
2007,08,12,13,44,19.50
2007,08,12,13,45,19.30
2007,08,12,13,46,19.30
2007,08,12,13,47,19.30
2007,08,12,13,48,19.30
2007,08,12,13,49,19.40
2007,08,12,13,50,19.40
2007,08,12,13,51,19.30
2007,08,12,13,52,19.10
2007,08,12,13,53,19.00
2007,08,12,13,54,19.00
2007,08,12,13,55,19.10
2007,08,12,13,56,19.20
2007,08,12,13,57,19.20
2007,08,12,13,58,19.20
2007,08,12,13,59,19.20
2007,08,12,14,00,19.20
2007,08,12,14,01,19.20
2007,08,12,14,02,19.20
2007,08,12,14,03,19.10
2007,08,12,14,04,19.00
2007,08,12,14,05,18.90
2007,08,12,14,06,19.00
2007,08,12,14,07,19.00
2007,08,12,14,08,19.00
2007,08,12,14,09,18.90
2007,08,12,14,10,18.90
2007,08,12,14,11,18.90
2007,08,12,14,12,18.90
2007,08,12,14,13,19.00
2007,08,12,14,14,18.90
2007,08,12,14,15,18.90
2007,08,12,14,16,18.90
2007,08,12,14,17,18.90
2007,08,12,14,18,19.00
2007,08,12,14,19,19.00
2007,08,12,14,20,19.10
2007,08,12,14,21,19.10
2007,08,12,14,22,19.20
2007,08,12,14,23,19.10
2007,08,12,14,24,19.10
2007,08,12,14,25,19.00
2007,08,12,14,26,18.80
2007,08,12,14,27,18.70
2007,08,12,14,28,18.60
2007,08,12,14,29,18.50
2007,08,12,14,30,18.50
2007,08,12,14,31,18.50
2007,08,12,14,32,18.60
2007,08,12,14,33,18.80
2007,08,12,14,34,18.80
2007,08,12,14,35,18.90
2007,08,12,14,36,19.00
2007,08,12,14,37,19.00
2007,08,12,14,38,19.10
2007,08,12,14,39,19.20
2007,08,12,14,40,19.20
2007,08,12,14,41,19.20
2007,08,12,14,42,19.20
2007,08,12,14,43,19.30
2007,08,12,14,44,19.30
2007,08,12,14,45,19.30
2007,08,12,14,46,19.30
2007,08,12,14,47,19.30
2007,08,12,14,48,19.30
2007,08,12,14,49,19.30
2007,08,12,14,50,19.20
2007,08,12,14,51,19.20
2007,08,12,14,52,19.20
2007,08,12,14,53,19.30
2007,08,12,14,54,19.30
2007,08,12,14,55,19.30
2007,08,12,14,56,19.20
2007,08,12,14,57,19.20
2007,08,12,14,58,19.20
2007,08,12,14,59,19.20
2007,08,12,15,00,19.20
2007,08,12,15,01,19.20
2007,08,12,15,02,19.20
2007,08,12,15,03,19.20
2007,08,12,15,04,19.30
2007,08,12,15,05,19.30
2007,08,12,15,06,19.40
2007,08,12,15,07,19.30
2007,08,12,15,08,19.30
2007,08,12,15,09,19.30
2007,08,12,15,10,19.30
2007,08,12,15,11,19.30
2007,08,12,15,12,19.20
2007,08,12,15,13,19.10
2007,08,12,15,14,19.00
2007,08,12,15,15,18.90
2007,08,12,15,16,18.90
2007,08,12,15,17,19.00
2007,08,12,15,18,19.00
2007,08,12,15,19,19.00
2007,08,12,15,20,18.90
2007,08,12,15,21,18.90
2007,08,12,15,22,18.80
2007,08,12,15,23,18.90
2007,08,12,15,24,18.90
2007,08,12,15,25,19.00
2007,08,12,15,26,19.10
2007,08,12,15,27,19.20
2007,08,12,15,28,19.20
2007,08,12,15,29,19.30
2007,08,12,15,30,19.20
2007,08,12,15,31,19.20
2007,08,12,15,32,19.10
2007,08,12,15,33,19.10
2007,08,12,15,34,19.10
2007,08,12,15,35,19.20
2007,08,12,15,36,19.30
2007,08,12,15,37,19.40
2007,08,12,15,38,19.50
2007,08,12,15,39,19.60
2007,08,12,15,40,19.60
2007,08,12,15,41,19.60
2007,08,12,15,42,19.40
2007,08,12,15,43,19.30
2007,08,12,15,44,19.30
2007,08,12,15,45,19.20
2007,08,12,15,46,19.10
2007,08,12,15,47,19.10
2007,08,12,15,48,19.10
2007,08,12,15,49,19.10
2007,08,12,15,50,19.10
2007,08,12,15,51,18.90
2007,08,12,15,52,18.80
2007,08,12,15,53,18.70
2007,08,12,15,54,18.60
2007,08,12,15,55,18.40
2007,08,12,15,56,18.30
2007,08,12,15,57,18.30
2007,08,12,15,58,18.30
2007,08,12,15,59,18.30
2007,08,12,16,00,18.30
2007,08,12,16,01,18.30
2007,08,12,16,02,18.30
2007,08,12,16,03,18.20
2007,08,12,16,04,18.30
2007,08,12,16,05,18.20
2007,08,12,16,06,18.20
2007,08,12,16,07,18.20
2007,08,12,16,08,18.30
2007,08,12,16,09,18.20
2007,08,12,16,10,18.30
2007,08,12,16,11,18.30
2007,08,12,16,12,18.30
2007,08,12,16,13,18.30
2007,08,12,16,14,18.30
2007,08,12,16,15,18.20
2007,08,12,16,16,18.20
2007,08,12,16,17,18.20
2007,08,12,16,18,18.20
2007,08,12,16,19,18.20
2007,08,12,16,20,18.20
2007,08,12,16,21,18.20
2007,08,12,16,22,18.20
2007,08,12,16,23,18.30
2007,08,12,16,24,18.30
2007,08,12,16,25,18.30
2007,08,12,16,26,18.30
2007,08,12,16,27,18.40
2007,08,12,16,28,18.30
2007,08,12,16,29,18.30
2007,08,12,16,30,18.30
2007,08,12,16,31,18.30
2007,08,12,16,32,18.30
2007,08,12,16,33,18.30
2007,08,12,16,34,18.30
2007,08,12,16,35,18.30
2007,08,12,16,36,18.40
2007,08,12,16,37,18.40
2007,08,12,16,38,18.50
2007,08,12,16,39,18.60
2007,08,12,16,40,18.60
2007,08,12,16,41,18.70
2007,08,12,16,42,18.80
2007,08,12,16,43,18.90
2007,08,12,16,44,18.90
2007,08,12,16,45,19.00
2007,08,12,16,46,19.00
2007,08,12,16,47,19.10
2007,08,12,16,48,19.10
2007,08,12,16,49,19.20
2007,08,12,16,50,19.20
2007,08,12,16,51,19.10
2007,08,12,16,52,19.00
2007,08,12,16,53,18.90
2007,08,12,16,54,18.90
2007,08,12,16,55,18.80
2007,08,12,16,56,18.80
2007,08,12,16,57,18.80
2007,08,12,16,58,18.80
2007,08,12,16,59,18.80
2007,08,12,17,00,18.80
2007,08,12,17,01,18.80
2007,08,12,17,02,18.80
2007,08,12,17,03,18.90
2007,08,12,17,04,18.90
2007,08,12,17,05,19.00
2007,08,12,17,06,19.10
2007,08,12,17,07,19.10
2007,08,12,17,08,19.20
2007,08,12,17,09,19.30
2007,08,12,17,10,19.30
2007,08,12,17,11,19.30
2007,08,12,17,12,19.40
2007,08,12,17,13,19.50
2007,08,12,17,14,19.50
2007,08,12,17,15,19.60
2007,08,12,17,16,19.70
2007,08,12,17,17,19.70
2007,08,12,17,18,19.70
2007,08,12,17,19,19.80